SCP
-0 -0 -0 -0 -0 -0 0 0 0 0 0 0 0 0 0 0 -0 0 0 -0 0 0 -0 -0 -0 0 0 0 0 0 0 0
-0 -0 0 -0 -0 -0 -0 0 0 0 0 0 0 0 0 0 -0 -0 0 -0 -0 -0 -0 -0 -0 -0 -0 -0 0 0 0 0
-0 -0 -0 -0 -0 -0 -0 0 0 -0 0 0 0 0 0 0 -0 0 -0 0 -0 0 -0 -0 -0 -0 -0 0 0 0 0 0
-0 -0 -0 -0 -0 -0 -0 0 0 -0 0 0 0 0 -0 -0 -0 0 -0 0 -0 0 -0 -0 -0 0 0 -0 0 0 0 0
-0 -0 -0 -0 0 -0 -0 0 -0 -0 -0 -0 -0 -0 -0 -0 -0 -0 -0 -0 -0 0 0 0 0 0 0 0 0 0 0 0
-0 -0 -0 -0 -0 0 -0 -0 -0 -0 0 -0 -0 -0 -0 0 -0 -0 0 -0 -0 0 0 0 0 0 0 -0 0 0 0 0
-0 -0 -0 -0 -0 -0 -0 -0 -0 -0 -0 -0 -0 -0 -0 -0 0 -0 0 -0 0 0 0 0 0 0 0 0 0 0 0 0
-0 -0 -0 -0 -0 -0 -0 -0 -0 -0 -0 -0 0 -0 -0 -0 0 0 -0 0 0 0 0 0 0 0 0 0 0 0 0 0
0 -0 -0 -0 -0 -0 -0 -0 -0 0 -0 -0 -0 0 -0 -0 -0 0 0 0 0 0 0 0 0 0 0 -0 -0 0 0 0
-0 -0 -0 0 -0 -0 -0 -0 -0 0 -0 -0 -0 -0 0 0 0 0 0 0 0 0 0 0 0 0 0 -0 0 0 -0 -0
0 -0 -0 0 0 -0 -0 -0 -0 0 -0 -0 -0 -0 0 0 0 0 0 0 0 0 0 0 0 0 0 -0 -0 -0 0 0
0 0 -0 0 0 -0 -0 -0 -0 -0 -0 -0 -0 -0 -0 0 0 0 0 0 0 0 0 -0 0 0 0 -0 0 0 0 -0
0 0 0 0 0 0 0 -0 -0 -0 -0 -0 -0 0 -0 0 0 0 0 0 0 0 0 0 0 0 0 0 0 0 0 0
0 0 0 0 0 0 0 -0 -0 -0 -0 -0 -0 0 0 0 0 0 0 -0 0 0 0 0 0 0 -0 -0 0 0 0 0
0 0 -0 0 0 0 0 0 -0 -0 -0 -0 -0 0 0 0 0 0 0 -0 -0 0 0 0 0 0 0 0 0 0 0 0
0 0 0 0 0 0 0 0 0 -0 -0 -0 -0 0 0 0 0 0 0 0 0 0 -0 0 0 0 0 0 0 0 0 -0
0 0 0 0 0 0 0 0 0 0 -0 0 0 0 0 0 0 0 0 0 0 0 0 -0 -0 0 -0 0 -0 0 0 0
0 0 0 0 0 0 0 0 0 0 0 -0 -0 0 0 0 0 0 0 0 0 0 -0 -0 -0 0 0 0 0 0 0 0
0 0 0 0 0 0 0 0 0 0 0 0 0 0 0 0 0 0 0 0 0 0 0 -0 -0 -0 -0 -0 -0 -0 -0 -0
0 0 0 0 0 0 0 0 0 0 0 0 0 0 0 0 0 0 0 0 0 0 0 0 0 -0 -0 -0 -0 -0 -0 -0
Wind_Speed_500mb
64 62 60 60 54 52 51 46 40 37 36 32 26 17 11 14 14 11 20 20 14 8 5 7 15 12 5 2 7 15 20 20
72 65 63 59 54 52 47 41 38 39 36 29 23 14 10 16 23 22 21 18 14 7 5 5 9 7 8 2 5 5 8 18
74 72 66 60 58 51 46 39 41 39 34 22 20 15 14 25 24 25 20 18 11 9 7 2 7 5 6 4 5 8 8 11
73 71 67 64 57 53 49 44 42 38 35 23 14 9 25 28 31 25 20 19 17 11 7 2 6 6 10 9 14 9 11 18
76 73 68 66 57 53 52 49 39 36 34 22 16 17 22 22 37 28 20 19 17 14 7 2 3 4 11 13 14 14 16 23
77 72 70 66 57 54 51 53 39 34 32 22 25 21 19 22 29 35 26 25 18 16 10 6 4 3 9 12 16 20 20 24
75 71 70 67 62 57 51 55 41 35 30 32 26 23 27 24 27 27 27 28 26 21 12 8 7 4 7 12 20 23 22 24
77 75 73 67 68 62 55 58 44 40 36 34 33 27 28 21 19 22 25 26 25 22 17 12 9 11 10 14 19 20 23 24
75 78 77 72 71 65 58 55 45 45 35 36 32 27 22 9 18 19 20 23 26 25 21 16 10 15 13 20 22 20 22 23
75 80 78 73 71 66 58 50 45 43 41 39 36 31 25 16 13 20 21 22 26 27 26 21 18 21 20 22 21 19 20 18
79 78 78 73 71 65 56 48 53 46 45 40 46 36 27 17 12 23 18 17 26 29 28 23 26 26 27 27 21 22 23 20
67 73 74 76 72 64 43 54 55 44 46 47 50 39 30 15 16 22 19 21 26 26 26 26 28 33 32 31 27 23 28 34
29 64 71 71 71 65 48 57 59 46 48 49 53 41 33 22 22 26 23 16 16 16 19 22 28 36 35 32 27 31 37 46
23 53 71 65 67 67 54 58 62 50 56 50 52 43 37 25 29 31 23 16 14 15 6 7 18 23 35 36 30 31 44 51
34 25 65 67 65 64 61 62 61 55 57 55 49 44 40 32 29 34 27 21 22 23 15 12 15 30 39 37 36 39 43 43
29 15 40 65 67 67 61 67 61 62 54 54 51 48 43 36 29 36 31 28 24 20 27 22 17 24 35 43 42 43 47 37
44 37 20 46 67 63 64 65 63 65 56 62 58 51 46 39 34 37 36 32 28 25 27 33 27 28 38 42 46 49 54 49
54 55 38 26 51 65 62 68 68 63 65 60 62 56 51 44 39 43 42 42 40 37 34 36 39 39 44 49 53 56 55 50
45 56 62 47 10 36 64 64 66 65 64 62 61 60 57 52 49 54 50 47 49 46 43 44 45 50 51 50 49 54 55 54
33 46 56 55 37 20 38 62 69 70 70 66 67 66 62 57 57 57 61 60 55 54 50 51 49 56 60 59 57 56 58 60
Wind_Direction_500mb
157 155 156 155 155 153 155 159 156 156 158 162 169 188 200 208 182 171 183 173 163 167 243 316 326 327 340 351 220 220 229 221
158 157 159 158 159 158 155 156 160 155 161 168 175 190 206 193 173 150 141 157 178 212 252 309 360 27 76 44 290 258 255 197
159 162 162 164 165 163 161 159 167 167 174 173 185 189 190 172 170 161 173 175 177 181 202 343 26 43 58 35 11 69 112 152
164 167 166 168 167 169 168 170 169 177 179 183 183 182 172 170 170 171 175 173 181 190 199 14 15 50 63 68 78 90 120 130
169 171 172 173 169 167 173 175 168 180 175 179 164 150 157 164 174 175 169 172 184 190 217 209 13 70 72 87 92 103 116 133
173 174 177 176 172 171 170 175 171 176 173 176 158 159 167 156 170 183 183 179 193 212 206 199 201 109 79 109 110 119 117 118
179 178 180 177 174 172 175 178 174 175 178 166 156 171 155 163 164 168 184 190 201 216 216 221 197 188 124 129 138 130 123 117
183 183 181 176 177 174 175 177 175 179 174 172 166 169 170 173 180 182 190 198 210 220 219 199 192 199 171 159 161 149 134 126
187 184 181 179 178 177 176 177 180 180 176 171 169 176 162 173 185 194 203 203 205 211 212 197 201 193 189 160 165 168 152 132
187 184 182 180 180 180 177 180 180 185 186 179 176 181 180 179 191 190 195 195 199 200 201 200 188 181 172 162 160 169 165 152
185 185 181 182 184 184 178 176 175 188 194 188 183 182 180 183 197 185 192 194 191 189 193 195 182 176 169 167 167 165 165 164
178 184 183 184 187 188 183 173 179 191 190 194 186 184 175 165 179 180 174 165 172 179 183 177 173 170 174 168 172 165 164 162
170 194 189 192 190 190 183 175 183 192 192 191 188 185 179 174 179 175 177 171 172 160 183 191 180 176 177 179 172 161 159 163
147 197 200 198 195 192 188 180 187 193 193 192 192 187 186 185 186 178 180 181 192 186 204 190 181 188 179 174 164 157 157 160
73 162 204 203 200 197 194 188 190 197 198 197 196 195 194 191 190 190 190 202 223 223 205 156 163 174 180 173 164 163 163 168
58 92 195 206 203 202 197 194 194 200 204 208 203 202 203 204 203 199 205 216 205 191 199 196 167 168 181 180 178 180 186 189
61 65 151 202 210 208 201 199 198 201 204 209 210 211 211 212 214 212 214 218 223 212 196 197 193 181 183 192 197 200 195 197
57 51 56 171 206 217 211 206 202 204 206 211 216 216 214 212 221 219 219 223 228 226 219 206 199 197 195 197 202 203 204 205
65 62 58 55 141 209 213 213 213 211 211 212 219 219 218 218 220 225 224 225 227 233 236 233 225 218 213 214 215 214 214 215
75 63 64 62 68 129 192 212 216 219 221 219 217 221 222 222 223 226 228 230 232 233 236 237 235 234 231 231 232 232 229 227
Wind_Speed_850mb
64 62 60 60 54 52 51 46 40 37 36 32 26 17 11 14 14 11 20 20 14 8 5 7 15 12 5 2 7 15 20 20
72 65 63 59 54 52 47 41 38 39 36 29 23 14 10 16 23 22 21 18 14 7 5 5 9 7 8 2 5 5 8 18
74 72 66 60 58 51 46 39 41 39 34 22 20 15 14 25 24 25 20 18 11 9 7 2 7 5 6 4 5 8 8 11
73 71 67 64 57 53 49 44 42 38 35 23 14 9 25 28 31 25 20 19 17 11 7 2 6 6 10 9 14 9 11 18
76 73 68 66 57 53 52 49 39 36 34 22 16 17 22 22 37 28 20 19 17 14 7 2 3 4 11 13 14 14 16 23
77 72 70 66 57 54 51 53 39 34 32 22 25 21 19 22 29 35 26 25 18 16 10 6 4 3 9 12 16 20 20 24
75 71 70 67 62 57 51 55 41 35 30 32 26 23 27 24 27 27 27 28 26 21 12 8 7 4 7 12 20 23 22 24
77 75 73 67 68 62 55 58 44 40 36 34 33 27 28 21 19 22 25 26 25 22 17 12 9 11 10 14 19 20 23 24
75 78 77 72 71 65 58 55 45 45 35 36 32 27 22 9 18 19 20 23 26 25 21 16 10 15 13 20 22 20 22 23
75 80 78 73 71 66 58 50 45 43 41 39 36 31 25 16 13 20 21 22 26 27 26 21 18 21 20 22 21 19 20 18
79 78 78 73 71 65 56 48 53 46 45 40 46 36 27 17 12 23 18 17 26 29 28 23 26 26 27 27 21 22 23 20
67 73 74 76 72 64 43 54 55 44 46 47 50 39 30 15 16 22 19 21 26 26 26 26 28 33 32 31 27 23 28 34
29 64 71 71 71 65 48 57 59 46 48 49 53 41 33 22 22 26 23 16 16 16 19 22 28 36 35 32 27 31 37 46
23 53 71 65 67 67 54 58 62 50 56 50 52 43 37 25 29 31 23 16 14 15 6 7 18 23 35 36 30 31 44 51
34 25 65 67 65 64 61 62 61 55 57 55 49 44 40 32 29 34 27 21 22 23 15 12 15 30 39 37 36 39 43 43
29 15 40 65 67 67 61 67 61 62 54 54 51 48 43 36 29 36 31 28 24 20 27 22 17 24 35 43 42 43 47 37
44 37 20 46 67 63 64 65 63 65 56 62 58 51 46 39 34 37 36 32 28 25 27 33 27 28 38 42 46 49 54 49
54 55 38 26 51 65 62 68 68 63 65 60 62 56 51 44 39 43 42 42 40 37 34 36 39 39 44 49 53 56 55 50
45 56 62 47 10 36 64 64 66 65 64 62 61 60 57 52 49 54 50 47 49 46 43 44 45 50 51 50 49 54 55 54
33 46 56 55 37 20 38 62 69 70 70 66 67 66 62 57 57 57 61 60 55 54 50 51 49 56 60 59 57 56 58 60
Wind_Direction_850mb
157 155 156 155 155 153 155 159 156 156 158 162 169 188 200 208 182 171 183 173 163 167 243 316 326 327 340 351 220 220 229 221
158 157 159 158 159 158 155 156 160 155 161 168 175 190 206 193 173 150 141 157 178 212 252 309 360 27 76 44 290 258 255 197
159 162 162 164 165 163 161 159 167 167 174 173 185 189 190 172 170 161 173 175 177 181 202 343 26 43 58 35 11 69 112 152
164 167 166 168 167 169 168 170 169 177 179 183 183 182 172 170 170 171 175 173 181 190 199 14 15 50 63 68 78 90 120 130
169 171 172 173 169 167 173 175 168 180 175 179 164 150 157 164 174 175 169 172 184 190 217 209 13 70 72 87 92 103 116 133
173 174 177 176 172 171 170 175 171 176 173 176 158 159 167 156 170 183 183 179 193 212 206 199 201 109 79 109 110 119 117 118
179 178 180 177 174 172 175 178 174 175 178 166 156 171 155 163 164 168 184 190 201 216 216 221 197 188 124 129 138 130 123 117
183 183 181 176 177 174 175 177 175 179 174 172 166 169 170 173 180 182 190 198 210 220 219 199 192 199 171 159 161 149 134 126
187 184 181 179 178 177 176 177 180 180 176 171 169 176 162 173 185 194 203 203 205 211 212 197 201 193 189 160 165 168 152 132
187 184 182 180 180 180 177 180 180 185 186 179 176 181 180 179 191 190 195 195 199 200 201 200 188 181 172 162 160 169 165 152
185 185 181 182 184 184 178 176 175 188 194 188 183 182 180 183 197 185 192 194 191 189 193 195 182 176 169 167 167 165 165 164
178 184 183 184 187 188 183 173 179 191 190 194 186 184 175 165 179 180 174 165 172 179 183 177 173 170 174 168 172 165 164 162
170 194 189 192 190 190 183 175 183 192 192 191 188 185 179 174 179 175 177 171 172 160 183 191 180 176 177 179 172 161 159 163
147 197 200 198 195 192 188 180 187 193 193 192 192 187 186 185 186 178 180 181 192 186 204 190 181 188 179 174 164 157 157 160
73 162 204 203 200 197 194 188 190 197 198 197 196 195 194 191 190 190 190 202 223 223 205 156 163 174 180 173 164 163 163 168
58 92 195 206 203 202 197 194 194 200 204 208 203 202 203 204 203 199 205 216 205 191 199 196 167 168 181 180 178 180 186 189
61 65 151 202 210 208 201 199 198 201 204 209 210 211 211 212 214 212 214 218 223 212 196 197 193 181 183 192 197 200 195 197
57 51 56 171 206 217 211 206 202 204 206 211 216 216 214 212 221 219 219 223 228 226 219 206 199 197 195 197 202 203 204 205
65 62 58 55 141 209 213 213 213 211 211 212 219 219 218 218 220 225 224 225 227 233 236 233 225 218 213 214 215 214 214 215
75 63 64 62 68 129 192 212 216 219 221 219 217 221 222 222 223 226 228 230 232 233 236 237 235 234 231 231 232 232 229 227